Location: Oberstdorf
(47.4188°N, 10.2969°E)
Time: 15:42:57
(UTC+01:00)

ISS - Pass Details

Date: 11 November 2017
Orbit: 402 x 407 km, 51.6° (Epoch: 23 November)

Event Time Altitude Azimuth Distance (km) Brightness Sun altitude
Exits shadow 05:09:39 36° 29° (NNE) 653 -2.6 -21.7°
Drops below altitude 10° 05:12:17 10° 77° (ENE) 1,457 0.0 -21.2°
Sets 05:14:26 0° 86° (E) 2,315 1.5 -20.9°
